CDT,Max TemperatureF,Mean TemperatureF,Min TemperatureF,Max Dew PointF,MeanDew PointF,Min DewpointF,Max Humidity, Mean Humidity, Min Humidity, Max Sea Level PressureIn, Mean Sea Level PressureIn, Min Sea Level PressureIn, Max VisibilityMiles, Mean VisibilityMiles, Min VisibilityMiles, Max Wind SpeedMPH, Mean Wind SpeedMPH, Max Gust SpeedMPH,PrecipitationIn, CloudCover, Events, WindDirDegrees
2013-10-1,86,79,71,77,72,69,93,79,65,29.98,29.94,29.88,10,9,4,24,6,40,0.22,6,Rain-Thunderstorm,133
2013-10-2,87,79,71,72,71,69,100,79,57,30.04,29.98,29.91,10,10,4,17,6,30,0.09,5,Rain,147
2013-10-3,88,80,71,73,71,70,93,74,55,29.99,29.94,29.88,10,10,7,20,8,25,0.03,4,Rain,155
2013-10-4,89,79,69,75,72,69,100,80,59,29.97,29.93,29.89,10,10,7,18,7,35,0.00,4,Fog,152
2013-10-5,86,74,61,77,72,57,94,80,65,29.99,29.93,29.82,10,8,1,23,9,33,1.10,7,Rain-Thunderstorm,203
2013-10-6,77,67,56,56,48,41,80,54,28,30.07,30.00,29.95,10,10,10,18,8,23,0.00,4,,317
2013-10-7,79,66,52,52,46,39,83,54,25,30.12,30.07,30.03,10,10,10,14,5,18,0.00,0,,321
2013-10-8,77,65,52,55,51,49,96,69,41,30.13,30.08,30.01,10,10,10,9,2,10,0.00,0,,51
2013-10-9,80,66,51,57,53,49,96,66,35,30.12,30.05,30.02,10,10,10,12,1,20,0.00,1,,156
2013-10-10,83,68,53,60,56,52,93,66,39,30.10,30.03,29.96,10,10,7,12,5,12,0.00,1,,146
2013-10-11,85,72,58,66,62,57,97,74,51,30.00,29.95,29.90,10,9,2,16,5,18,0.00,1,,167
2013-10-12,84,76,67,77,70,65,97,86,74,30.09,29.99,29.93,10,7,1,21,7,31,0.76,7,Rain-Thunderstorm,206
2013-10-13,77,72,67,68,67,46,100,85,69,30.22,30.15,30.06,10,8,0,10,7,12,T,8,Fog,45
2013-10-14,79,74,68,70,67,64,90,80,69,30.14,30.07,29.99,10,9,7,8,6,9,0.02,8,Rain,109
2013-10-15,85,75,65,72,69,64,100,81,61,29.99,29.95,29.89,10,8,2,23,8,30,0.82,8,Rain,155
2013-10-16,66,64,61,64,63,59,100,94,87,30.03,29.97,29.92,10,7,2,14,7,16,0.86,8,Rain,9
2013-10-17,72,63,53,59,54,48,97,71,44,30.09,30.02,29.99,10,10,4,13,5,17,T,6,,335
2013-10-18,73,62,51,58,53,50,100,74,47,30.06,30.00,29.93,10,10,7,14,3,22,T,5,,153
2013-10-19,67,57,47,57,48,39,93,65,37,30.13,30.06,29.98,10,10,10,20,8,26,0.00,4,,324
2013-10-20,71,57,42,50,45,40,96,68,40,30.11,30.03,29.96,10,10,10,12,4,20,0.00,0,Fog,154
2013-10-21,76,63,50,62,54,47,89,73,57,30.04,29.99,29.94,10,10,10,14,2,21,0.00,5,,79
2013-10-22,72,63,53,58,53,47,93,69,44,30.11,30.05,30.01,10,10,5,16,8,22,T,5,,339
2013-10-23,77,64,50,53,48,46,86,61,36,30.14,30.09,30.05,10,10,10,9,3,14,0.00,0,,122
2013-10-24,80,66,52,55,52,49,80,61,42,30.27,30.16,30.08,10,10,10,15,7,20,0.00,0,,339
2013-10-25,66,57,47,48,41,34,77,59,40,30.45,30.36,30.29,10,10,10,16,9,22,0.00,1,,83
2013-10-26,77,62,46,57,48,39,86,67,47,30.29,30.19,30.09,10,10,9,10,4,23,0.02,5,,155
2013-10-27,72,65,57,59,58,56,97,79,61,30.11,30.06,30.00,10,9,5,13,5,16,0.02,7,Rain,314
2013-10-28,79,68,57,63,60,55,100,78,56,30.16,30.10,30.04,10,7,0,9,3,12,0.00,7,Fog,134
2013-10-29,81,72,62,67,64,60,100,79,58,30.17,30.12,30.06,10,8,0,15,7,18,0.00,8,Fog,148
2013-10-30,70,68,66,68,66,64,100,92,84,30.12,30.00,29.83,10,6,2,24,8,33,1.32,8,Rain,130
2013-10-31,75,65,55,70,65,48,100,72,44,29.87,29.75,29.69,10,8,1,17,9,24,1.76,7,Rain-Thunderstorm,216